Tracking 23762 objects as of 22-Oct-2021
HD Live streaming from Space Station
objects crossing your sky now

SPACEBEE-18

Track SPACEBEE-18 now!
10-day predictions


NORAD ID: 46304
Int'l Code: 2020-061AJ
Perigee: 533.4 km
Apogee: 534.5 km
Inclination: 97.5 °
Period: 95.2 minutes
Semi major axis: 6904 km
RCS: Unknown
Launch date: September 3, 2020
Source: United States (US)
Launch site: FRENCH GUIANA (FRGUI)
aabbcc
Your satellite tracking list
Your tracking list is empty




NASA's NSSDC Master Catalog

Two Line Element Set (TLE):
1 46304U 20061AJ  21294.44860189  .00003602  00000-0  20730-3 0  9990
2 46304  97.4802   5.8604 0000819  85.4499 274.6826 15.13070536 62340
Source of the keplerian elements: AFSPC